This demonstration page uses our WeatherBlox Daily Observations layout. Learn more.

Left ArrowRight Arrow

47.50024, -111.30081

Hourly Observations for April 15, 2020

Temp ( °F °C ) Dew Point ( °F °C ) Humidity (%) Winds ( mph kmh ) Pressure ( in mb ) Visibility ( mi km ) Precip ( " mm )
3:23 am 03:23 Cloudy with Light Snow 34 1.1 30 -1.1 85 85 N 7 11 30.06 1018 7 11 0.01 0.25
4:54 am 04:54 Mostly Clear with Snow 33 0.6 30 -1.1 89 89 NE 14 22 30.11 1020 N/A 0.01 0.25
5:32 am 05:32 Partly Cloudy with Isolated Snow Showers 32 0 30 -1.1 92 92 N 13 20 30.13 1020 2 3 0.01 0.25
6:06 am 06:06 Partly Cloudy with Isolated Snow Showers 32 0 30 -1.1 92 92 N 12 19 30.15 1021 2 3 0.01 0.25
6:24 am 06:24 Cloudy with Light Snow 32 0 30 -1.1 92 92 N 12 19 30.16 1021 3 5 0.02 0.51
6:51 am 06:51 Partly Cloudy with Isolated Snow Showers 32 0 28 -2 87 87 N 14 22 30.17 1022 2 3 0.02 0.51
6:53 am 06:53 Partly Cloudy with Isolated Snow Showers 32 0 29 -1.7 88 88 N 13 20 30.18 1022 2 2 0.02 0.51
7:02 am 07:02 Partly Cloudy with Isolated Snow Showers 32 0 29 -1.7 88 88 N 13 20 30.19 1022 1 1 0.01 0.25
7:12 am 07:12 Cloudy with Light Snow 32 0 29 -1.7 88 88 N 13 20 30.19 1022 1 2 0.01 0.25
7:26 am 07:26 Partly Cloudy with Isolated Snow Showers 32 0 29 -1.7 88 88 NNE 15 24 30.20 1023 1 2 0.01 0.25
8:19 am 08:19 Cloudy with Light Snow 30 -1.1 27 -2.8 88 88 N 15 24 30.26 1025 3 4 0.02 0.51
8:22 am 08:22 Cloudy with Light Snow 30 -1.1 27 -2.8 88 88 N 18 30 30.26 1025 3 4 0.02 0.51
9:25 am 09:25 Cloudy 30 -1.1 24 -4.4 79 79 N 20 31 30.30 1026 10 16 0.02 0.51
9:32 am 09:32 Cloudy 30 -1.1 24 -4.4 79 79 N 20 31 30.31 1026 10 16 0.02 0.51
9:53 am 09:53 Cloudy 30 -1.1 23 -5 75 75 N 15 24 30.28 1026 10 16 0.02 0.51
10:53 am 10:53 undefined 30 -1.1 23 -5 75 75 N 16 26 30.31 1026 10 16 0.00 0.00
11:20 am 11:20 Cloudy 31 -0.6 23 -5 72 72 N 17 28 30.33 1027 10 16 0.00 0.00
11:53 am 11:53 Cloudy 33 0.6 23 -5 66 66 N 14 22 30.32 1027 10 16 0.00 0.00
12:11 pm 12:11 Mostly Cloudy 35 1.7 23 -5 61 61 N 18 30 30.31 1026 10 16 0.00 0.00
12:53 pm 12:53 Mostly Cloudy 36 2.2 24 -4.4 62 62 NNE 20 31 30.33 1027 10 16 0.00 0.00
1:53 pm 13:53 Cloudy 34 1.1 21 -6.1 59 59 N 16 26 30.33 1027 10 16 0.00 0.00
3:53 pm 15:53 undefined 34 1.1 24 -4.4 67 67 NW 13 20 30.34 1027 10 16 0.00 0.00
4:53 pm 16:53 Cloudy 36 2.2 24 -4.4 62 62 N 9 15 30.33 1027 8 13 0.00 0.00
5:01 pm 17:01 Mostly Cloudy 35 1.7 25 -3.9 67 67 NNW 7 11 30.32 1027 8 13 0.00 0.00
5:31 pm 17:31 Mostly Cloudy with Light Snow 33 0.6 24 -4.4 70 70 NE 8 13 30.34 1028 1 2 0.00 0.00
5:45 pm 17:45 Cloudy with Light Snow 32 0 25 -3.9 75 75 Calm 30.35 1028 2 3 0.01 0.25
5:53 pm 17:53 Cloudy 32 0 25 -3.9 75 75 Calm 30.35 1028 9 14 0.01 0.25
6:02 pm 18:02 Cloudy 33 0.6 25 -3.9 72 72 Calm 30.34 1028 10 16 0.00 0.00
6:09 pm 18:09 Cloudy 33 0.6 25 -3.9 72 72 VRB 3 6 30.34 1028 10 16 0.00 0.00
6:53 pm 18:53 Cloudy 33 0.6 25 -3.9 72 72 NNE 13 20 30.36 1028 10 16 0.00 0.00
7:37 pm 19:37 Cloudy with Light Snow 30 -1.1 26 -3.3 85 85 NE 14 22 30.39 1029 5 8 0.00 0.00
7:41 pm 19:41 Cloudy with Light Snow 30 -1.1 26 -3.3 85 85 NNE 14 22 30.38 1029 3 5 0.00 0.00
7:44 pm 19:44 Cloudy with Light Snow 30 -1.1 26 -3.3 85 85 NE 12 19 30.38 1029 3 5 0.00 0.00
7:53 pm 19:53 Mostly Cloudy with Light Snow 29 -1.7 25 -3.9 85 85 NNE 9 15 30.39 1029 3 5 0.00 0.00
8:09 pm 20:09 Cloudy 29 -1.7 24 -4.4 82 82 NE 9 15 30.40 1029 8 13 0.00 0.00
8:25 pm 20:25 Cloudy with Light Snow 29 -1.7 25 -3.9 85 85 NE 8 13 30.41 1030 2 3 0.00 0.00
8:32 pm 20:32 Cloudy with Light Snow 29 -1.7 25 -3.9 85 85 NE 7 11 30.41 1030 2 3 0.00 0.00
8:39 pm 20:39 Cloudy with Light Snow 29 -1.7 25 -3.9 85 85 NNE 8 13 30.41 1030 3 5 0.00 0.00
8:50 pm 20:50 Cloudy with Light Snow 28 -2 25 -4 86 86 NNE 8 13 30.42 1030 2 3 0.00 0.00
8:51 pm 20:51 Cloudy with Light Snow 28 -2 25 -4 86 86 NNE 8 13 30.42 1030 2 3 0.00 0.00
8:53 pm 20:53 Cloudy with Light Snow 28 -2.2 25 -3.9 88 88 NNE 8 13 30.41 1030 3 4 0.00 0.00
9:00 pm 21:00 Cloudy 28 -2.2 24 -4.4 85 85 NNE 9 15 30.43 1030 8 13 0.00 0.00
9:12 pm 21:12 Cloudy 28 -2.2 24 -4.4 85 85 N 7 11 30.44 1031 9 14 0.00 0.00
9:53 pm 21:53 Mostly Cloudy 25 -3.9 22 -5.6 88 88 N 5 7 30.45 1031 10 16 0.00 0.00
10:09 pm 22:09 Mostly Cloudy 26 -3.3 23 -5 88 88 N 8 13 30.47 1032 10 16 0.00 0.00
10:37 pm 22:37 Cloudy 27 -2.8 23 -5 85 85 N 9 15 30.47 1032 8 13 0.00 0.00
10:53 pm 22:53 Cloudy 26 -3.3 23 -5 88 88 NNE 8 13 30.46 1031 7 11 0.00 0.00
11:53 pm 23:53 Cloudy 24 -4.4 21 -6.1 88 88 WNW 5 7 30.47 1032 10 16 0.00 0.00

Powered by AerisWeather